SL-24 DEB

Satellite information

Favourite Embed

Satellite Type and Status

DEBRISIN ORBIT

Key statistics

Satellite SL-24 DEB at a glance.

Uptime

5612

Days in orbit

Revolutions

≈ 14.8

Per day

Orbit

SSO

Sun Synchronous Orbit

Inclination

98.0

Latest

Satellite identification and parameters

Extended collection of information and parameters for SL-24 DEB.

Object identification

Identified? True

Debris? True

Object name: SL-24 DEB

International designator: 2010-028E

Object number (NORAD): 36602

Object ID (CCSDS): 36602

Country: COMMONWEALTH OF INDEPENDENT STATES (CIS)

Current information (Y/N): Y

RCS size: LARGE

Orbital parameters

Period: 97.502 minutes

Inclination: 97.9685 deg

SMA: 7017.279 km

Apoapsis: 650.58 km

Periapsis: 627.708 km

RAAN: 135.9247 deg

Eccentricy: 0.00162966

Argument of periapsis: 59.9823 deg

Mean anomaly: 300.3002 deg

Mean motion: 14.7689507 rev/day

Mean motion (dot): 0.00005372 rev/day2

B* drag term: 0.00076941857 1/REarth

Two-line elements (TLE)

Creation date: Oct. 26, 2025, 2:54 a.m.

Reference frame: TEME

Reference center: EARTH

Epoch: Oct. 25, 2025, 9:22 p.m. UTC

TLE line 0: 0 SL-24 DEB

TLE line 1: 1 36602U 10028E 25298.89077558 .00005372 00000-0 76942-3 0 9991

TLE line 2: 2 36602 97.9685 135.9247 0016297 59.9823 300.3002 14.76895070819772

Live tracking on map

Real-time ground track for satellite SL-24 DEB.

In-orbit conjunctions

A list of the most updated potential collisions computed for object SL-24 DEB.

Target Orbit TCA Probability of collision Miss distance Type
CZ-6A DEB LEO 2025-01-20 18:33:08 0.0007385624 516.0 (m) DEBRIS
CZ-6A DEB LEO 2024-11-24 21:05:47 0.0001204591 811.0 (m) DEBRIS

Associated space launch

SL-24 DEB was lifted into orbit during the mission ‘Dnepr 1 | Prisma-Mango, Prisma-Tango, Picard, BPA-1’, on board a Dnepr space rocket.

The launch took place on June 15, 2010, 2:42 p.m. from 370/13.

For more information about the launch, click the button.

Launch to space Dnepr 1 | Prisma-Mango, Prisma-Tango, Picard, BPA-1
Dnepr 1 | Prisma-Mango, Prisma-Tango, Picard, BPA-1

Agency: N/A

Status: Launch Successful

Launch date: June 15, 2010, 2:42 p.m. UTC

Rocket: Dnepr

Launch pad: 370/13

Location: Dombarovskiy, Russian Federation

...

Latest news about this satellite

There are no fresh news available about this satellite. Check back as we update our databases every day.


Newsletter sign-up

Weekly statistics, charts and insights to help you stay on top of the space industry.